When you browse on this site, cookies collect data to enhance your experience and personalize the content and advertising you see.
Visit our Privacy Policy to learn more. By continuing to use the site, you agree to this use of cookies and data.
  • In Switzerland
  • List of Countries
  • For 7 days
  • Water Temperature
  • Satellite Maps
  • Weather Map
  • Weather Widgets
  • user-avatar
    Login

    Hourly Weather Bayukovo

    Today, 23 January, Wednesday

    Time Temperature Precipitation Wind Pressure Humidity
    00:00 -25°C° 0 mm 3 mps 749 mmHg 98%
    01:00 -25°C° 0 mm 3 mps 749 mmHg 98%
    02:00 -26°C° 0 mm 3 mps 750 mmHg 99%
    03:00 -26°C° 0 mm 3 mps 750 mmHg 99%
    04:00 -27°C° 0 mm 3 mps 750 mmHg 99%
    05:00 -27°C° 0 mm 3 mps 750 mmHg 99%
    06:00 -27°C° 0 mm 3 mps 751 mmHg 99%
    07:00 -27°C° 0 mm 3 mps 751 mmHg 98%
    08:00 -27°C° 0 mm 3 mps 752 mmHg 98%
    09:00 -27°C° 0 mm 3 mps 752 mmHg 98%
    10:00 -27°C° 0 mm 3 mps 753 mmHg 97%
    11:00 -26°C° 0 mm 3 mps 753 mmHg 97%
    12:00 -25°C° 0 mm 3 mps 754 mmHg 96%
    13:00 -24°C° 0 mm 3 mps 754 mmHg 95%
    14:00 -24°C° 0 mm 3 mps 754 mmHg 96%
    15:00 -25°C° 0 mm 3 mps 755 mmHg 96%
    16:00 -24°C° 0 mm 2 mps 755 mmHg 96%
    17:00 -26°C° 0 mm 3 mps 755 mmHg 96%
    18:00 -26°C° 0 mm 3 mps 756 mmHg 97%
    19:00 -27°C° 0 mm 3 mps 756 mmHg 97%
    20:00 -27°C° 0 mm 3 mps 756 mmHg 97%
    21:00 -26°C° 0 mm 3 mps 757 mmHg 97%
    22:00 -26°C° 0 mm 3 mps 757 mmHg 97%
    23:00 -25°C° 0 mm 2 mps 757 mmHg 97%

    Tomorrow, 24 January, Thursday

    Time Temperature Precipitation Wind Pressure Humidity
    00:00 -24°C° 0 mm 2 mps 758 mmHg 97%
    01:00 -24°C° 0 mm 2 mps 758 mmHg 97%
    02:00 -24°C° 0 mm 2 mps 758 mmHg 97%
    03:00 -25°C° 0 mm 2 mps 759 mmHg 97%
    04:00 -25°C° 0 mm 2 mps 759 mmHg 97%
    05:00 -25°C° 0 mm 2 mps 759 mmHg 98%
    06:00 -26°C° 0 mm 2 mps 760 mmHg 98%
    07:00 -26°C° 0 mm 2 mps 760 mmHg 98%
    08:00 -26°C° 0 mm 2 mps 760 mmHg 98%
    09:00 -25°C° 0 mm 2 mps 760 mmHg 97%
    10:00 -26°C° 0 mm 3 mps 760 mmHg 97%
    11:00 -24°C° 0 mm 3 mps 760 mmHg 96%
    12:00 -23°C° 0 mm 3 mps 760 mmHg 94%
    13:00 -21°C° 0 mm 3 mps 760 mmHg 93%
    14:00 -22°C° 0 mm 4 mps 760 mmHg 92%
    15:00 -22°C° 0 mm 4 mps 760 mmHg 92%
    16:00 -22°C° 0 mm 4 mps 759 mmHg 91%
    17:00 -22°C° 0 mm 4 mps 759 mmHg 91%
    18:00 -21°C° 0 mm 5 mps 758 mmHg 90%
    19:00 -21°C° 0 mm 5 mps 757 mmHg 89%
    20:00 -21°C° 0.3 mm 6 mps 756 mmHg 90%
    21:00 -20°C° 0.3 mm 6 mps 756 mmHg 91%
    22:00 -19°C° 0.3 mm 7 mps 755 mmHg 92%
    23:00 -19°C° 0.4 mm 7 mps 754 mmHg 92%

    Day after tomorrow, 25 January, Friday

    Time Temperature Precipitation Wind Pressure Humidity
    00:00 -18°C° 0.4 mm 7 mps 753 mmHg 92%
    01:00 -18°C° 0.4 mm 7 mps 752 mmHg 91%
    02:00 -17°C° 0.3 mm 6 mps 752 mmHg 92%
    03:00 -16°C° 0.3 mm 6 mps 751 mmHg 92%
    04:00 -15°C° 0.3 mm 5 mps 751 mmHg 92%
    05:00 -15°C° 0.2 mm 5 mps 750 mmHg 92%
    06:00 -15°C° 0.2 mm 4 mps 750 mmHg 93%
    07:00 -15°C° 0.2 mm 4 mps 749 mmHg 93%
    08:00 -16°C° 0.1 mm 4 mps 750 mmHg 93%
    09:00 -16°C° 0.1 mm 4 mps 750 mmHg 93%
    10:00 -17°C° 0.1 mm 4 mps 750 mmHg 93%
    11:00 -17°C° 0 mm 4 mps 751 mmHg 93%
    12:00 -16°C° 0 mm 4 mps 751 mmHg 92%
    13:00 -16°C° 0 mm 4 mps 752 mmHg 92%
    14:00 -17°C° 0 mm 4 mps 752 mmHg 93%
    15:00 -18°C° 0 mm 4 mps 752 mmHg 94%
    16:00 -18°C° 0 mm 3 mps 753 mmHg 95%
    17:00 -19°C° 0 mm 3 mps 754 mmHg 96%
    18:00 -22°C° 0 mm 3 mps 754 mmHg 97%
    19:00 -23°C° 0 mm 3 mps 755 mmHg 98%
    20:00 -24°C° 0 mm 3 mps 755 mmHg 98%
    21:00 -25°C° 0 mm 3 mps 756 mmHg 99%
    22:00 -25°C° 0 mm 3 mps 756 mmHg 99%
    23:00 -26°C° 0 mm 3 mps 757 mmHg 99%

    26 January, Saturday

    Time Temperature Precipitation Wind Pressure Humidity
    00:00 -26°C° 0 mm 3 mps 757 mmHg 98%
    01:00 -27°C° 0 mm 3 mps 758 mmHg 98%
    02:00 -26°C° 0 mm 2 mps 758 mmHg 98%
    03:00 -27°C° 0 mm 2 mps 759 mmHg 98%
    04:00 -27°C° 0 mm 2 mps 759 mmHg 99%
    05:00 -27°C° 0 mm 2 mps 759 mmHg 99%
    06:00 -24°C° 0 mm 1 mps 759 mmHg 99%
    07:00 -25°C° 0 mm 1 mps 760 mmHg 99%
    08:00 -24°C° 0 mm 1 mps 760 mmHg 99%
    09:00 -24°C° 0 mm 1 mps 760 mmHg 98%
    10:00 -24°C° 0 mm 1 mps 761 mmHg 98%
    11:00 -22°C° 0 mm 0 mps 761 mmHg 97%
    12:00 -21°C° 0 mm 0 mps 761 mmHg 95%
    13:00 -20°C° 0 mm 0 mps 761 mmHg 94%
    14:00 -20°C° 0 mm 0 mps 761 mmHg 95%
    15:00 -21°C° 0 mm 0 mps 761 mmHg 96%
    16:00 -22°C° 0 mm 0 mps 761 mmHg 97%
    17:00 -23°C° 0 mm 0 mps 761 mmHg 97%
    18:00 -23°C° 0 mm 1 mps 761 mmHg 97%
    19:00 -24°C° 0 mm 1 mps 761 mmHg 97%
    20:00 -24°C° 0 mm 1 mps 761 mmHg 97%
    21:00 -24°C° 0 mm 1 mps 761 mmHg 96%
    22:00 -24°C° 0 mm 1 mps 761 mmHg 96%
    23:00 -27°C° 0 mm 2 mps 761 mmHg 96%

    27 January, Sunday

    Time Temperature Precipitation Wind Pressure Humidity
    00:00 -27°C° 0 mm 2 mps 761 mmHg 95%
    01:00 -27°C° 0 mm 2 mps 761 mmHg 95%
    02:00 -27°C° 0 mm 2 mps 761 mmHg 95%
    03:00 -27°C° 0 mm 3 mps 760 mmHg 94%
    04:00 -27°C° 0 mm 3 mps 760 mmHg 94%
    05:00 -27°C° 0 mm 3 mps 760 mmHg 92%
    06:00 -27°C° 0 mm 3 mps 760 mmHg 91%
    07:00 -27°C° 0 mm 3 mps 759 mmHg 90%
    08:00 -26°C° 0 mm 4 mps 759 mmHg 88%
    09:00 -25°C° 0 mm 4 mps 759 mmHg 85%
    10:00 -24°C° 0 mm 4 mps 758 mmHg 83%
    11:00 -23°C° 0 mm 4 mps 758 mmHg 83%
    12:00 -22°C° 0 mm 5 mps 757 mmHg 83%
    13:00 -21°C° 0 mm 5 mps 757 mmHg 83%
    14:00 -21°C° 0 mm 5 mps 756 mmHg 82%
    15:00 -21°C° 0 mm 5 mps 756 mmHg 82%
    16:00 -20°C° 0 mm 5 mps 755 mmHg 82%
    17:00 -20°C° 0 mm 5 mps 754 mmHg 83%
    18:00 -20°C° 0 mm 5 mps 754 mmHg 85%
    19:00 -20°C° 0 mm 5 mps 754 mmHg 86%
    20:00 -19°C° 0.1 mm 5 mps 753 mmHg 88%
    21:00 -17°C° 0.1 mm 5 mps 753 mmHg 89%
    22:00 -15°C° 0.1 mm 5 mps 752 mmHg 91%
    23:00 -15°C° 0.2 mm 5 mps 752 mmHg 91%

    28 January, Monday

    Time Temperature Precipitation Wind Pressure Humidity
    00:00 -15°C° 0.2 mm 5 mps 752 mmHg 91%
    01:00 -15°C° 0.2 mm 5 mps 752 mmHg 91%
    02:00 -15°C° 0.2 mm 5 mps 752 mmHg 91%
    03:00 -15°C° 0.2 mm 5 mps 752 mmHg 91%
    04:00 -15°C° 0.2 mm 5 mps 751 mmHg 92%
    05:00 -17°C° 0.5 mm 5 mps 751 mmHg 92%
    06:00 -17°C° 0.5 mm 5 mps 751 mmHg 93%
    07:00 -17°C° 0.5 mm 5 mps 751 mmHg 94%
    08:00 -17°C° 0.4 mm 5 mps 751 mmHg 94%
    09:00 -17°C° 0.4 mm 5 mps 751 mmHg 94%
    10:00 -16°C° 0.4 mm 4 mps 751 mmHg 94%
    11:00 -16°C° 0.2 mm 4 mps 751 mmHg 94%
    12:00 -16°C° 0.2 mm 4 mps 751 mmHg 94%
    13:00 -15°C° 0.2 mm 4 mps 751 mmHg 94%
    14:00 -14°C° 0.1 mm 3 mps 751 mmHg 94%
    15:00 -14°C° 0.1 mm 3 mps 751 mmHg 94%
    16:00 -13°C° 0.1 mm 2 mps 751 mmHg 94%
    17:00 -14°C° 0 mm 2 mps 752 mmHg 94%
    18:00 -14°C° 0 mm 2 mps 752 mmHg 95%
    19:00 -15°C° 0 mm 2 mps 752 mmHg 95%
    20:00 -14°C° 0 mm 2 mps 752 mmHg 95%
    21:00 -14°C° 0 mm 2 mps 752 mmHg 96%
    22:00 -14°C° 0 mm 2 mps 752 mmHg 96%
    23:00 -13°C° 0 mm 2 mps 753 mmHg 96%
    Show more